Location: Apeadero de Los Molinos-Guadarrama
(40.7091°N, 4.0689°W)
Time: 09:52:58
(UTC+00:00)

Terra - Pass Details

Date: 14 May 2021
Orbit: 701 x 703 km, 98.2° (Epoch: 17 June)

Event Time Altitude Azimuth Distance (km) Brightness Sun altitude
Exits shadow 22:03:27 63° 109° (ESE) 784 1.7 -23.3°
Maximum altitude 22:03:53 68° 75° (ENE) 760 1.8 -23.3°
Drops below altitude 10° 22:08:38 10° 353° (N) 2,179 5.2 -23.8°
Sets 22:10:54 0° 350° (N) 3,101 6.3 -24.1°
